N0PFE-1 Weather Reports


time (UTC)temp
C
wind
direction
speed
KPH
gust
KPH
rain 1hr
cm
rain 24hr
cm
rain mn
cm
humidity
%
barometer
mb
20260506134100 23 111 1.6 4.8 0.00 0.00 0.00 99 1010.8
20260506133034 23 109 4.8 6.4 0.00 0.00 0.00 99 1010.8
20260506132027 23 120 1.6 4.8 0.00 0.00 0.00 99 1010.8
20260506131043 23 113 0.0 3.2 0.00 0.00 0.00 99 1010.5
20260506130133 22 113 1.6 3.2 0.00 0.00 0.00 99 1010.4
20260506125051 22 149 3.2 3.2 0.00 0.00 0.00 99 1010.3
20260506124110 22 136 3.2 4.8 0.00 0.00 0.00 99 1010.3
20260506123051 22 125 3.2 4.8 0.00 0.00 0.00 99 1010.3
20260506122104 22 114 1.6 3.2 0.00 0.00 0.00 99 1010.2
20260506121029 22 94 0.0 3.2 0.00 0.00 0.00 99 1010.2
20260506120049 22 113 3.2 4.8 0.00 0.00 0.00 99 1010.2
20260506115024 22 129 3.2 4.8 0.00 0.00 0.00 99 1010.2
20260506114139 22 129 3.2 4.8 0.00 0.00 0.00 99 1010.1
20260506113025 22 136 3.2 4.8 0.00 0.00 0.00 99 1010.1
20260506112019 22 135 0.0 1.6 0.00 0.00 0.00 99 1010.3
20260506111058 22 134 3.2 3.2 0.00 0.00 0.00 99 1010.4
20260506110038 22 180 1.6 3.2 0.00 0.00 0.00 99 1010.3
20260506105016 22 150 1.6 3.2 0.00 0.00 0.00 99 1010.2
20260506104024 22 142 1.6 3.2 0.00 0.00 0.00 99 1010.1
20260506103020 23 0.0 0.0 0.00 0.00 0.00 99 1010.1
20260506102019 23 144 3.2 4.8 0.00 0.00 0.00 97 1009.9
20260506101114 23 140 3.2 6.4 0.00 0.00 0.00 92 1009.8
20260506100027 23 160 3.2 4.8 0.00 0.00 0.00 89 1009.7
20260506095141 23 166 1.6 3.2 0.00 0.00 0.00 89 1009.7
20260506094033 23 181 1.6 3.2 0.00 0.00 0.00 89 1009.7
20260506093033 23 190 4.8 8.0 0.00 0.00 0.00 89 1009.4
20260506092111 23 158 3.2 4.8 0.00 0.00 0.00 89 1009.2
20260506091111 23 155 3.2 4.8 0.00 0.00 0.00 88 1009.2
20260506090044 23 152 3.2 6.4 0.00 0.00 0.00 88 1009.0
20260506085100 23 284 3.2 4.8 0.00 0.00 0.00 87 1009.0
20260506084121 23 171 3.2 6.4 0.00 0.00 0.00 87 1009.0
20260506083134 23 117 4.8 8.0 0.00 0.00 0.00 87 1008.8
20260506082047 23 166 6.4 11.3 0.00 0.00 0.00 86 1009.0
20260506081021 23 170 4.8 9.7 0.00 0.00 0.00 86 1009.2
20260506073019 23 148 8.0 14.5 0.00 0.00 0.00 85 1009.3
20260506072104 23 149 8.0 12.9 0.00 0.00 0.00 85 1009.3
20260506071023 23 152 8.0 11.3 0.00 0.00 0.00 85 1009.3
20260506062034 23 157 8.0 11.3 0.00 0.00 0.00 86 1009.0
20260506061048 23 155 9.7 11.3 0.00 0.00 0.00 86 1009.0
20260506051039 23 150 11.3 16.1 0.00 0.00 0.00 84 1009.2
20260506045053 24 177 6.4 12.9 0.00 0.00 0.00 82 1009.3
20260506044048 24 136 6.4 9.7 0.00 0.00 0.00 82 1009.4
20260506042019 24 124 4.8 9.7 0.00 0.00 0.00 80 1009.2
20260506041054 24 147 4.8 8.0 0.00 0.00 0.00 79 1009.2
20260506040048 24 173 1.6 4.8 0.00 0.00 0.00 78 1009.1
20260506035104 25 96 4.8 6.4 0.00 0.00 0.00 77 1008.9
20260506034019 25 143 6.4 8.0 0.00 0.00 0.00 76 1008.8
20260506033021 25 144 8.0 14.5 0.00 0.00 0.00 75 1008.5
20260506032027 25 156 9.7 14.5 0.00 0.00 0.00 74 1008.5
20260506031023 25 166 9.7 17.7 0.00 0.00 0.00 73 1008.3
20260506030019 25 145 6.4 11.3 0.00 0.00 0.00 73 1008.2
20260506025026 25 155 8.0 11.3 0.00 0.00 0.00 73 1008.1
20260506024027 25 147 9.7 14.5 0.00 0.00 0.00 72 1008.0
20260506023024 25 132 8.0 9.7 0.00 0.00 0.00 72 1007.8
20260506022018 25 131 6.4 9.7 0.00 0.00 0.00 71 1007.6
20260506021149 25 136 8.0 11.3 0.00 0.00 0.00 70 1007.4
20260506020047 26 128 6.4 8.0 0.00 0.00 0.00 70 1007.3
20260506015029 26 149 6.4 8.0 0.00 0.00 0.00 69 1007.1
20260506014044 26 137 6.4 9.7 0.00 0.00 0.00 68 1007.0
20260506013041 26 142 8.0 9.7 0.00 0.00 0.00 68 1006.7
20260506012103 26 141 8.0 11.3 0.00 0.00 0.00 67 1006.8
20260506011108 27 126 8.0 9.7 0.00 0.00 0.00 66 1006.8
20260506010127 27 131 8.0 9.7 0.00 0.00 0.00 65 1006.8
20260506005018 27 129 8.0 12.9 0.00 0.00 0.00 64 1006.8
20260506003128 28 160 6.4 8.0 0.00 0.00 0.00 62 1006.9
20260506002043 28 168 6.4 9.7 0.00 0.00 0.00 62 1006.9
20260506001110 28 154 6.4 11.3 0.00 0.00 0.00 61 1006.8
20260506000111 28 174 8.0 11.3 0.00 0.00 0.00 60 1006.8
20260505235027 28 173 6.4 9.7 0.00 0.00 0.00 61 1006.8
20260505234024 28 167 8.0 12.9 0.00 0.00 0.00 60 1006.7
20260505233019 29 169 9.7 14.5 0.00 0.00 0.00 59 1006.7
20260505232106 29 165 8.0 11.3 0.00 0.00 0.00 59 1006.6
20260505231046 30 172 8.0 11.3 0.00 0.00 0.00 58 1006.5
20260505230129 30 160 8.0 11.3 0.00 0.00 0.00 57 1006.5
20260505225043 30 158 6.4 12.9 0.00 0.00 0.00 58 1006.6
20260505224120 30 156 8.0 12.9 0.00 0.00 0.00 57 1006.7
20260505223047 30 157 6.4 9.7 0.00 0.00 0.00 57 1006.6
20260505222050 31 177 8.0 9.7 0.00 0.00 0.00 55 1006.6
20260505221024 31 169 4.8 8.0 0.00 0.00 0.00 55 1006.5
20260505220020 31 161 8.0 11.3 0.00 0.00 0.00 55 1006.6
20260505215053 31 143 9.7 14.5 0.00 0.00 0.00 54 1006.7
20260505214149 31 155 12.9 14.5 0.00 0.00 0.00 53 1006.7
20260505213024 31 173 11.3 14.5 0.00 0.00 0.00 54 1007.0
20260505212025 32 190 8.0 12.9 0.00 0.00 0.00 53 1006.9
20260505211102 32 154 9.7 16.1 0.00 0.00 0.00 53 1007.0
20260505210022 32 185 9.7 14.5 0.00 0.00 0.00 53 1007.1
20260505205027 32 144 9.7 17.7 0.00 0.00 0.00 54 1007.2
20260505204022 32 160 9.7 14.5 0.00 0.00 0.00 54 1007.3
20260505203139 32 171 9.7 16.1 0.00 0.00 0.00 54 1007.4
20260505202029 31 135 12.9 17.7 0.00 0.00 0.00 54 1007.6
20260505201045 31 179 11.3 17.7 0.00 0.00 0.00 54 1007.9
20260505200153 32 159 9.7 14.5 0.00 0.00 0.00 53 1008.0
20260505195028 32 158 9.7 14.5 0.00 0.00 0.00 54 1008.1
20260505194049 32 173 8.0 12.9 0.00 0.00 0.00 53 1008.1
20260505193024 32 214 6.4 11.3 0.00 0.00 0.00 53 1008.3
20260505192022 32 173 8.0 11.3 0.00 0.00 0.00 52 1008.5
20260505191027 32 224 8.0 11.3 0.00 0.00 0.00 53 1008.5
20260505190023 32 189 6.4 9.7 0.00 0.00 0.00 53 1008.6
20260505185020 32 194 6.4 9.7 0.00 0.00 0.00 52 1008.8
20260505184026 31 161 9.7 14.5 0.00 0.00 0.00 54 1009.0
20260505183022 33 214 4.8 9.7 0.00 0.00 0.00 53 1009.0
20260505182017 31 198 6.4 16.1 0.00 0.00 0.00 55 1009.4
20260505181030 31 186 6.4 11.3 0.00 0.00 0.00 55 1009.5
20260505180050 31 191 6.4 11.3 0.00 0.00 0.00 56 1009.6
20260505175025 30 184 8.0 12.9 0.00 0.00 0.00 57 1009.6
20260505174022 29 205 4.8 8.0 0.00 0.00 0.00 60 1009.7
20260505173018 29 231 6.4 9.7 0.00 0.00 0.00 59 1009.7
20260505172030 29 249 6.4 12.9 0.00 0.00 0.00 60 1009.9
20260505171149 28 220 6.4 9.7 0.00 0.00 0.00 63 1009.9
20260505170042 27 219 6.4 11.3 0.00 0.00 0.00 66 1010.0
20260505165039 26 174 9.7 16.1 0.00 0.00 0.00 68 1010.0
20260505164039 26 195 8.0 12.9 0.00 0.00 0.00 69 1010.0
20260505163051 25 182 6.4 9.7 0.00 0.00 0.00 69 1010.1
20260505162022 25 178 4.8 8.0 0.00 0.00 0.00 70 1009.8
20260505161044 25 180 8.0 11.3 0.00 0.00 0.00 72 1009.9
20260505153027 22 203 4.8 8.0 0.00 0.00 0.00 79 1010.2
20260505152021 22 187 4.8 9.7 0.00 0.00 0.00 80 1010.0
20260505151021 22 183 6.4 11.3 0.00 0.00 0.00 80 1009.9